TimeEST,TemperatureF,Dew PointF,Humidity,Sea Level PressureIn,VisibilityMPH,Wind Direction,Wind SpeedMPH,Gust SpeedMPH,PrecipitationIn,Events,Conditions,WindDirDegrees,DateUTC
12:53 AM,23.0,12.0,63,30.47,10.0,Variable,6.9,-,N/A,,Mostly Cloudy,0,2013-11-24 05:53:00
1:53 AM,23.0,12.9,65,30.49,10.0,NNW,9.2,17.3,N/A,,Overcast,340,2013-11-24 06:53:00
2:53 AM,21.9,9.0,58,30.50,10.0,Variable,4.6,-,N/A,,Mostly Cloudy,0,2013-11-24 07:53:00
3:53 AM,21.0,3.9,48,30.52,10.0,North,8.1,-,N/A,,Partly Cloudy,360,2013-11-24 08:53:00
4:53 AM,19.0,5.0,54,30.54,10.0,Variable,6.9,-,N/A,,Clear,0,2013-11-24 09:53:00
5:53 AM,18.0,6.1,60,30.56,10.0,Variable,3.5,-,N/A,,Clear,0,2013-11-24 10:53:00
6:53 AM,17.1,6.1,62,30.59,10.0,Variable,3.5,-,N/A,,Clear,0,2013-11-24 11:53:00
7:53 AM,17.1,7.0,65,30.62,10.0,Variable,3.5,-,N/A,,Clear,0,2013-11-24 12:53:00
8:53 AM,19.9,8.1,60,30.63,10.0,NNW,3.5,-,N/A,,Clear,330,2013-11-24 13:53:00
9:53 AM,21.9,6.1,51,30.66,10.0,Variable,4.6,-,N/A,,Clear,0,2013-11-24 14:53:00
10:53 AM,26.1,7.0,44,30.66,10.0,Variable,4.6,-,N/A,,Partly Cloudy,0,2013-11-24 15:53:00
11:53 AM,25.0,5.0,43,30.63,10.0,West,4.6,-,N/A,,Clear,280,2013-11-24 16:53:00
12:53 PM,26.1,5.0,41,30.60,10.0,Variable,4.6,-,N/A,,Clear,0,2013-11-24 17:53:00
1:53 PM,28.9,5.0,36,30.57,10.0,Variable,4.6,-,N/A,,Clear,0,2013-11-24 18:53:00
2:53 PM,27.0,3.9,37,30.56,10.0,Variable,3.5,-,N/A,,Clear,0,2013-11-24 19:53:00
3:53 PM,27.0,3.9,37,30.56,10.0,Calm,Calm,-,N/A,,Clear,0,2013-11-24 20:53:00
4:53 PM,26.1,3.9,39,30.56,10.0,Variable,4.6,-,N/A,,Clear,0,2013-11-24 21:53:00
5:53 PM,24.1,5.0,44,30.56,10.0,North,3.5,-,N/A,,Clear,10,2013-11-24 22:53:00
6:53 PM,23.0,6.1,48,30.56,10.0,NNE,3.5,-,N/A,,Clear,30,2013-11-24 23:53:00
7:53 PM,21.9,6.1,51,30.57,10.0,NNE,3.5,-,N/A,,Clear,30,2013-11-25 00:53:00
8:53 PM,21.9,6.1,51,30.56,10.0,NNE,3.5,-,N/A,,Clear,20,2013-11-25 01:53:00
9:53 PM,21.9,5.0,48,30.56,10.0,Calm,Calm,-,N/A,,Clear,0,2013-11-25 02:53:00
10:53 PM,21.0,8.1,57,30.54,10.0,Calm,Calm,-,N/A,,Clear,0,2013-11-25 03:53:00
11:53 PM,21.0,7.0,55,30.54,10.0,Calm,Calm,-,N/A,,Clear,0,2013-11-25 04:53:00